Location: Home
(40.5300°N, 105.0300°W)
Time: 02:35:28
(UTC-06:00)

STARLINK-2715 - Pass Details

Date: 22 June 2021
Orbit: 348 x 351 km, 53.0° (Epoch: 25 July)

Event Time Altitude Azimuth Distance (km) Brightness Sun altitude
Exits shadow 04:10:11 14° 174° (S) 1,095 4.8 -12.5°
Maximum altitude 04:11:48 21° 132° (SE) 845 4.6 -12.3°
Drops below altitude 10° 04:14:07 10° 79° (E) 1,312 6.4 -12.0°
Sets 04:16:24 0° 63° (ENE) 2,159 8.2 -11.7°
